Location: Klein M�hlingen
(51.9472°N, 11.7453°E)
Time: 08:46:18
(UTC+00:00)

ISS - Pass Details

Date: 30 September 2021
Orbit: 418 x 423 km, 51.6° (Epoch: 19 October)

Event Time Altitude Azimuth Distance (km) Brightness Sun altitude
Rises 19:02:27 0° 283° (WNW) 2,368 1.6 -20.5°
Reaches altitude 10° 19:04:43 10° 271° (W) 1,502 0.0 -20.8°
Enters shadow 19:07:34 28° 214° (SSW) 811 -2.3 -21.2°
